Owls Head, ME

10:50 AM EST on December 08, 2016 (GMT -0500)
Knox County Regional

Weather History for KRKD - March, 2014

Change the Weather History Date:

Sunday, March 16, 2014

  Actual Average Record
Temperature  
Mean Temperature 24 °F -  
Max Temperature 35 °F 35 °F 51 °F (2016)
Min Temperature 12 °F 22 °F 12 °F (2014)
Degree Days  
Heating Degree Days 42    
Moisture  
Dew Point 6 °F    
Average Humidity 47    
Maximum Humidity 100    
Minimum Humidity 34    
Precipitation  
Precipitation 0.00 in - - ()
Sea Level Pressure  
Sea Level Pressure 29.98 in    
Wind  
Wind Speed 13 mph (West)    
Max Wind Speed 25 mph    
Max Gust Speed 34 mph    
Visibility 10 miles    
Events      
Averages and records for this station are not official NWS values.
T = Trace of Precipitation, MM = Missing Value Source: NWS Daily Summary

Daily Weather History Graph

Daily Weather History Graph

Search for Another Location

Airport or City:

Trip Planner

Search our weather history database for the weather conditions in past years. The results will help you decide how hot, cold, wet, or windy it might be!

Date:

Astronomy

Mar. 16, 2014 Rise Set
Actual Time 6:46 AM EDT 6:43 PM EDT
Civil Twilight 6:18 AM EDT 7:12 PM EDT
Nautical Twilight 5:44 AM EDT 7:46 PM EDT
Astronomical Twilight 5:10 AM EDT 8:20 PM EDT
Moon 6:59 PM EDT (3/16) 6:28 AM EDT (3/16)
Length of Visible Light 12h 54m
Length of Day
11h 56m
Full, 100% of the Moon is Illuminated
Mar 16
Full
Mar 16
Full
Mar 23
Last Quarter
Mar 30
New
Apr 7
First Quarter

Hourly Weather History & Observations

Time (EDT) Temp. Windchill Dew Point Humidity Pressure Visibility Wind Dir Wind Speed Gust Speed Precip Events Conditions
12:15 AM 30.2 °F 26.7 °F 30.2 °F 100% 29.75 in 10.0 mi SW 3.5 mph - N/A   Mostly Cloudy
12:35 AM 30.2 °F - 30.2 °F 100% 29.74 in 10.0 mi Calm Calm - N/A   Overcast
12:55 AM 33.8 °F 30.8 °F 32.0 °F 93% 29.75 in 10.0 mi SW 3.5 mph - N/A   Overcast
1:15 AM 33.8 °F 27.0 °F 32.0 °F 93% 29.75 in 10.0 mi WSW 8.1 mph - N/A   Overcast
1:35 AM 35.6 °F 28.0 °F 30.2 °F 81% 29.76 in 10.0 mi West 10.4 mph - N/A   Overcast
1:55 AM 35.6 °F 27.1 °F 28.4 °F 75% 29.76 in 10.0 mi West 12.7 mph - N/A   Overcast
2:15 AM 33.8 °F 26.4 °F 30.2 °F 87% 29.77 in 3.0 mi WNW 9.2 mph - N/A   Overcast
2:35 AM 33.8 °F 26.4 °F 30.2 °F 87% 29.77 in 10.0 mi West 9.2 mph - N/A   Overcast
2:55 AM 33.8 °F 27.0 °F 30.2 °F 87% 29.78 in 10.0 mi WNW 8.1 mph - N/A   Mostly Cloudy
3:15 AM 33.8 °F 24.8 °F 26.6 °F 75% 29.79 in 10.0 mi WNW 12.7 mph 16.1 mph N/A   Partly Cloudy
3:35 AM 33.8 °F 25.3 °F 19.4 °F 56% 29.79 in 10.0 mi WNW 11.5 mph 19.6 mph N/A   Scattered Clouds
3:55 AM 32.0 °F 22.1 °F 19.4 °F 60% 29.80 in 10.0 mi WNW 13.8 mph 20.7 mph N/A   Mostly Cloudy
4:15 AM 32.0 °F 23.0 °F 17.6 °F 55% 29.81 in 10.0 mi WNW 11.5 mph 24.2 mph N/A   Partly Cloudy
4:35 AM 32.0 °F 23.0 °F 17.6 °F 55% 29.82 in 10.0 mi West 11.5 mph 19.6 mph N/A   Clear
4:55 AM 30.2 °F 20.2 °F 17.6 °F 60% 29.83 in 10.0 mi West 12.7 mph 20.7 mph N/A   Clear
5:15 AM 30.2 °F 19.3 °F 15.8 °F 55% 29.84 in 10.0 mi WNW 15.0 mph 20.7 mph N/A   Clear
5:35 AM 30.2 °F 19.3 °F 15.8 °F 55% 29.85 in 10.0 mi WNW 15.0 mph 20.7 mph N/A   Clear
5:55 AM 28.4 °F 17.0 °F 14.0 °F 55% 29.86 in 10.0 mi WNW 15.0 mph 26.5 mph N/A   Clear
6:15 AM 28.4 °F 16.2 °F 6.8 °F 40% 29.88 in 10.0 mi WNW 17.3 mph 29.9 mph N/A   Clear
6:35 AM 28.4 °F 15.1 °F 6.8 °F 40% 29.89 in 10.0 mi WNW 20.7 mph 29.9 mph N/A   Clear
6:55 AM 26.6 °F 12.7 °F 8.6 °F 47% 29.90 in 10.0 mi West 20.7 mph 31.1 mph N/A   Clear
7:15 AM 26.6 °F 13.1 °F 5.0 °F 40% 29.92 in 10.0 mi West 19.6 mph 32.2 mph N/A   Clear
7:35 AM 26.6 °F 13.8 °F 6.8 °F 43% 29.93 in 10.0 mi West 17.3 mph 26.5 mph N/A   Clear
7:55 AM 26.6 °F 14.7 °F 6.8 °F 43% 29.94 in 10.0 mi WNW 15.0 mph 28.8 mph N/A   Clear
8:15 AM 24.8 °F 11.5 °F 5.0 °F 43% 29.96 in 10.0 mi WNW 17.3 mph 23.0 mph N/A   Clear
8:35 AM 24.8 °F 12.4 °F 5.0 °F 43% 29.96 in 10.0 mi WNW 15.0 mph 24.2 mph N/A   Clear
8:55 AM 24.8 °F 11.5 °F 6.8 °F 46% 29.97 in 10.0 mi WNW 17.3 mph 23.0 mph N/A   Clear
9:15 AM 24.8 °F 10.7 °F 6.8 °F 46% 29.98 in 10.0 mi WNW 19.6 mph 27.6 mph N/A   Clear
9:35 AM 24.8 °F 11.5 °F 3.2 °F 40% 29.98 in 10.0 mi West 17.3 mph 24.2 mph N/A   Clear
9:55 AM 24.8 °F 12.4 °F 3.2 °F 40% 29.99 in 10.0 mi WNW 15.0 mph 31.1 mph N/A   Clear
10:15 AM 24.8 °F 12.9 °F 3.2 °F 40% 29.99 in 10.0 mi WNW 13.8 mph 25.3 mph N/A   Clear
10:35 AM 24.8 °F 10.7 °F 3.2 °F 40% 30.00 in 10.0 mi West 19.6 mph - N/A   Clear
10:55 AM 24.8 °F 9.6 °F 1.4 °F 36% 30.00 in 10.0 mi West 23.0 mph 29.9 mph N/A   Clear
11:15 AM 24.8 °F 11.1 °F 1.4 °F 36% 30.01 in 10.0 mi WNW 18.4 mph 28.8 mph N/A   Clear
11:35 AM 24.8 °F 9.0 °F 1.4 °F 36% 30.00 in 10.0 mi WNW 25.3 mph 31.1 mph N/A   Clear
11:55 AM 24.8 °F 10.0 °F 1.4 °F 36% 30.01 in 10.0 mi WNW 21.9 mph 31.1 mph N/A   Clear
12:15 PM 24.8 °F 9.0 °F 1.4 °F 36% 30.01 in 10.0 mi West 25.3 mph 33.4 mph N/A   Clear
12:35 PM 24.8 °F 11.5 °F 1.4 °F 36% 30.01 in 10.0 mi West 17.3 mph 23.0 mph N/A   Clear
12:55 PM 24.8 °F 10.3 °F 1.4 °F 36% 30.00 in 10.0 mi West 20.7 mph 28.8 mph N/A   Clear
1:15 PM 24.8 °F 11.5 °F 1.4 °F 36% 29.99 in 10.0 mi West 17.3 mph 27.6 mph N/A   Clear
1:35 PM 24.8 °F 10.0 °F 1.4 °F 36% 29.99 in 10.0 mi West 21.9 mph 34.5 mph N/A   Clear
1:55 PM 24.8 °F 10.0 °F 3.2 °F 40% 29.99 in 10.0 mi WSW 21.9 mph 29.9 mph N/A   Clear
2:15 PM 26.6 °F 12.7 °F 3.2 °F 37% 30.00 in 10.0 mi West 20.7 mph 28.8 mph N/A   Clear
2:35 PM 26.6 °F 13.1 °F 3.2 °F 37% 30.00 in 10.0 mi West 19.6 mph 27.6 mph N/A   Clear
2:55 PM 26.6 °F 13.1 °F 3.2 °F 37% 30.00 in 10.0 mi West 19.6 mph 31.1 mph N/A   Clear
3:15 PM 26.6 °F 11.4 °F 3.2 °F 37% 30.00 in 10.0 mi West 25.3 mph 28.8 mph N/A   Clear
3:35 PM 26.6 °F 12.7 °F 1.4 °F 34% 30.01 in 10.0 mi West 20.7 mph 27.6 mph N/A   Clear
3:55 PM 24.8 °F 11.5 °F -0.4 °F 34% 30.01 in 10.0 mi West 17.3 mph 27.6 mph N/A   Clear
4:15 PM 26.6 °F 12.4 °F 1.4 °F 34% 30.01 in 10.0 mi West 21.9 mph 28.8 mph N/A   Clear
4:35 PM 24.8 °F 11.9 °F 1.4 °F 36% 30.01 in 10.0 mi West 16.1 mph 24.2 mph N/A   Clear
4:55 PM 24.8 °F 11.1 °F -0.4 °F 34% 30.02 in 10.0 mi WNW 18.4 mph 27.6 mph N/A   Clear
5:15 PM 24.8 °F 11.1 °F -0.4 °F 34% 30.04 in 10.0 mi WNW 18.4 mph 28.8 mph N/A   Clear
5:35 PM 24.8 °F 10.0 °F -0.4 °F 34% 30.05 in 10.0 mi WNW 21.9 mph 29.9 mph N/A   Clear
5:55 PM 23.0 °F 8.7 °F -0.4 °F 36% 30.06 in 10.0 mi WNW 18.4 mph 23.0 mph N/A   Clear
6:15 PM 21.2 °F 5.2 °F -2.2 °F 36% 30.07 in 10.0 mi West 21.9 mph 29.9 mph N/A   Clear
6:35 PM 21.2 °F 6.4 °F -2.2 °F 36% 30.07 in 10.0 mi West 18.4 mph 28.8 mph N/A   Clear
6:55 PM 19.4 °F 2.5 °F -2.2 °F 39% 30.07 in 10.0 mi West 23.0 mph 27.6 mph N/A   Clear
7:15 PM 19.4 °F 4.5 °F -2.2 °F 39% 30.08 in 10.0 mi WNW 17.3 mph 24.2 mph N/A   Clear
7:35 PM 19.4 °F 5.5 °F -4.0 °F 36% 30.08 in 10.0 mi West 15.0 mph 25.3 mph N/A   Clear
7:55 PM 19.4 °F 5.5 °F -4.0 °F 36% 30.11 in 10.0 mi West 15.0 mph 24.2 mph N/A   Clear
8:15 PM 17.6 °F 3.2 °F -4.0 °F 38% 30.13 in 10.0 mi West 15.0 mph 25.3 mph N/A   Clear
8:35 PM 17.6 °F 2.7 °F -4.0 °F 38% 30.13 in 10.0 mi West 16.1 mph 21.9 mph N/A   Clear
8:55 PM 17.6 °F 2.2 °F -4.0 °F 38% 30.14 in 10.0 mi West 17.3 mph 24.2 mph N/A   Clear
9:15 PM 17.6 °F 4.3 °F -2.2 °F 42% 30.15 in 10.0 mi West 12.7 mph 21.9 mph N/A   Clear
9:35 PM 17.6 °F 4.3 °F -4.0 °F 38% 30.17 in 10.0 mi West 12.7 mph - N/A   Clear
9:55 PM 15.8 °F -1.1 °F -5.8 °F 38% 30.17 in 10.0 mi West 19.6 mph 24.2 mph N/A   Clear
10:15 PM 15.8 °F 1.4 °F -5.8 °F 38% 30.18 in 10.0 mi West 13.8 mph 19.6 mph N/A   Clear
10:35 PM 15.8 °F 1.4 °F -5.8 °F 38% 30.19 in 10.0 mi West 13.8 mph 17.3 mph N/A   Clear
10:55 PM 15.8 °F 2.7 °F -5.8 °F 38% 30.20 in 10.0 mi WNW 11.5 mph 18.4 mph N/A   Clear
11:15 PM 14.0 °F 1.2 °F -7.6 °F 38% 30.20 in 10.0 mi WNW 10.4 mph 18.4 mph N/A   Clear
11:35 PM 12.2 °F -1.8 °F -7.6 °F 41% 30.20 in 10.0 mi WNW 11.5 mph 17.3 mph N/A   Clear
11:55 PM 12.2 °F 0.7 °F -5.8 °F 45% 30.21 in 10.0 mi WNW 8.1 mph - N/A   Clear